Terminal Aerodrome Forecast
Issued by NWS Shreveport, LA

Home | Current Version | Previous Version | Text Only | Print | Product List | Glossary On
Versions: 1 2 3 4 5 6 7 8 9 10 11 12 13 14 15 16 17 18 19 20
000
FTUS44 KSHV 271121
TAFGGG
TAF
KGGG 271121Z 2712/2812 VRB04KT P6SM SKC
     FM271700 32012G18KT P6SM SCT250
     FM272200 35006KT P6SM SKC
     FM280100 VRB03KT P6SM SKC=

USA.gov is the U.S. government's official web portal to all federal, state and local government web resources and services.